Dewpoint
60 60 60 61 56 56 56 56 57 58 58 58 58 58 58 58 59 60 61 62 63 64 64 63 62 67 68 71 73 72 70 70 69 69 70 68 69 70 70 66 69 69 69
57 58 56 57 55 54 55 56 57 57 58 57 57 58 58 58 57 57 57 57 57 56 60 62 63 63 62 61 61 70 73 71 70 69 69 69 68 68 69 70 70 69 66
58 58 57 57 54 54 55 56 57 57 56 55 56 55 56 56 56 55 55 55 55 56 57 56 56 58 62 61 59 59 59 70 72 71 69 70 70 70 69 70 70 70 69
58 59 57 56 56 55 56 56 57 57 56 55 55 55 56 56 54 53 53 53 53 54 54 54 53 54 55 56 61 60 58 67 69 70 71 70 70 70 71 69 69 71 69
54 53 53 54 55 55 55 56 56 56 56 56 55 55 55 54 52 53 53 53 54 53 53 53 54 55 59 58 57 57 60 58 55 54 57 59 66 69 69 68 69 69 66
53 53 53 53 53 54 55 56 56 55 55 55 54 53 54 52 54 56 54 51 51 51 51 52 52 56 55 57 58 61 61 59 57 54 52 49 48 56 68 70 69 68 67
53 52 53 54 53 53 54 55 54 54 55 54 54 53 53 51 54 55 55 50 50 50 51 51 52 53 55 54 55 57 57 60 61 59 56 54 53 53 61 67 69 70 69
52 52 53 54 54 55 55 55 55 55 55 53 53 53 53 52 54 54 54 50 48 48 49 51 51 52 53 54 53 53 52 52 54 58 57 57 57 57 57 59 66 68 70
53 53 54 54 55 55 55 55 56 56 55 54 54 53 53 51 52 53 52 48 47 46 47 49 51 52 54 55 55 54 53 53 54 56 56 57 57 57 57 54 53 65 66
53 54 55 56 56 56 56 56 57 57 56 55 55 54 53 51 51 51 51 48 47 46 46 47 52 53 54 54 54 54 53 53 53 54 56 57 57 57 59 58 55 57 63
55 55 56 56 57 57 58 58 58 57 57 55 55 53 51 50 49 50 51 48 47 46 47 47 48 51 51 52 53 53 53 53 53 52 52 52 53 58 58 58 61 59 58
56 56 57 57 57 57 56 56 57 57 56 55 54 52 50 50 50 50 50 50 50 48 48 48 48 49 49 50 52 52 52 53 53 52 52 53 53 53 54 58 61 67 68
55 55 55 56 56 57 56 56 56 55 54 52 49 47 47 48 49 50 50 49 50 51 50 51 51 49 48 49 52 52 52 52 52 51 50 49 51 53 54 59 67 67 67
54 54 55 55 55 52 50 52 54 53 50 48 48 47 46 48 50 51 47 48 49 49 50 48 49 50 50 51 52 53 53 52 52 51 50 50 51 54 53 53 63 65 67
54 54 53 53 51 50 50 51 50 50 49 48 47 46 50 50 50 49 46 47 48 48 49 46 46 48 50 53 53 53 53 53 52 52 52 51 56 59 61 61 63 64 64
54 53 52 51 51 51 50 50 50 49 46 44 44 45 51 50 47 46 44 43 44 46 49 48 48 48 50 53 54 54 54 55 56 57 54 52 53 54 58 62 63 63 63
54 53 53 51 51 50 49 49 46 46 47 45 44 43 43 46 46 44 44 43 45 47 48 48 48 48 50 52 54 54 54 54 56 57 58 55 53 54 58 61 62 63 63
55 54 53 53 51 50 50 47 46 48 46 48 46 45 43 43 44 44 43 46 49 49 50 49 49 49 49 52 53 52 52 54 55 57 59 59 60 60 60 61 62 62 62
53 52 52 50 50 49 48 48 48 50 49 49 48 47 46 45 46 44 45 49 50 50 50 50 50 50 50 51 53 55 55 56 56 58 59 59 60 61 61 62 62 57 57
53 53 53 51 50 50 49 50 48 47 49 48 47 51 52 50 50 50 50 50 50 50 50 50 50 50 50 50 51 52 53 55 55 55 55 56 57 59 60 60 59 58 58
53 49 51 48 49 47 47 48 48 49 47 49 48 51 48 48 49 50 50 51 51 50 49 48 48 48 49 50 50 51 51 52 53 55 56 56 56 56 57 59 59 58 58
48 48 47 46 46 47 46 47 47 47 48 46 45 48 44 49 51 50 50 51 52 52 52 49 47 46 47 47 48 48 50 50 51 52 53 55 55 55 56 57 57 57 57
48 48 46 46 46 47 46 45 45 44 44 41 43 48 47 48 52 51 50 51 51 51 51 48 45 44 46 46 47 45 44 45 49 52 51 50 50 52 53 54 56 56 56
49 48 47 46 46 44 43 41 45 44 43 42 41 42 42 47 45 46 48 49 48 47 50 42 40 40 40 40 41 40 39 38 43 45 52 49 48 47 50 53 55 55 54
46 46 44 41 42 42 41 45 45 42 40 41 40 42 41 43 44 44 45 46 47 47 46 41 41 40 39 38 37 35 33 32 35 36 44 42 40 40 41 45 52 55 55
44 42 42 44 44 44 45 44 45 43 42 42 41 42 45 42 42 42 43 45 45 44 45 43 41 40 39 38 36 34 32 31 34 33 41 41 39 39 39 39 38 39 42
Lifted_Index
-0 0 1 2 3 4 5 6 6 6 7 7 7 6 6 5 5 5 4 3 3 3 3 2 2 2 1 -1 -3 -4 -4 -4 -4 -4 -4 -4 -4 -4 -4 -3 -2 -2 -2
1 1 2 3 4 4 5 5 6 6 7 7 7 6 6 5 5 6 6 5 6 6 5 4 3 3 2 1 -0 -2 -3 -3 -4 -4 -4 -4 -4 -4 -4 -4 -3 -2 -2
2 2 3 3 4 4 5 5 6 7 7 7 7 6 6 6 6 7 7 8 8 8 7 7 6 5 4 3 2 2 0 -2 -3 -4 -3 -4 -4 -4 -4 -4 -4 -3 -3
2 2 3 4 4 4 5 6 6 6 7 7 8 7 7 7 7 8 8 8 9 9 9 8 8 7 5 4 3 3 2 1 -1 -2 -2 -3 -3 -4 -4 -4 -4 -4 -4
2 3 4 5 5 5 6 6 6 6 7 8 8 8 8 8 9 9 10 10 10 10 10 10 9 8 7 6 5 3 3 3 2 2 2 1 0 -1 -3 -4 -4 -3 -3
4 4 5 5 6 6 6 6 6 7 7 8 8 9 9 9 10 10 11 12 12 12 12 11 11 10 9 8 7 6 5 5 5 5 5 6 5 3 -0 -2 -3 -3 -3
5 5 5 5 5 5 6 6 7 7 7 8 8 9 9 10 10 11 12 13 13 13 13 13 12 11 10 10 9 8 8 7 6 6 6 7 7 6 3 1 -1 -2 -2
4 4 4 5 5 5 5 5 6 6 6 7 7 8 9 10 11 11 12 13 14 14 14 14 13 12 11 10 10 10 10 9 8 7 7 7 7 6 5 3 1 -1 -1
4 4 4 4 4 4 4 4 4 4 5 6 6 7 9 10 10 11 12 13 13 14 14 14 13 12 11 10 10 10 10 10 9 9 8 7 7 6 6 5 3 1 -0
3 3 3 3 3 3 3 3 3 3 4 5 6 7 8 9 10 10 11 12 12 13 13 13 12 11 11 10 9 9 9 10 9 9 9 8 8 7 6 6 5 3 2
2 2 2 2 2 2 2 2 3 3 4 4 5 6 7 8 8 9 10 11 12 12 12 12 11 10 10 9 8 8 8 8 9 9 9 9 8 7 7 6 5 4 3
1 1 1 1 1 1 2 2 2 3 3 4 5 5 6 6 7 8 9 10 11 12 11 10 9 8 8 8 7 6 7 7 7 8 9 9 9 8 7 6 4 2 1
0 0 1 1 1 1 2 2 2 2 3 4 5 5 5 6 6 8 9 9 10 10 10 8 6 5 6 6 6 5 5 6 6 7 8 8 8 8 7 5 3 1 -0
-0 0 0 1 1 1 2 2 2 2 3 4 4 5 5 5 6 8 9 9 9 9 8 6 5 4 4 4 4 4 4 5 6 6 6 7 7 6 5 4 2 0 -0
-1 -0 0 1 1 1 2 1 2 2 3 4 4 4 4 5 6 8 9 9 9 9 8 6 4 3 3 3 3 3 3 4 4 5 5 5 5 4 3 2 1 0 -0
-1 -1 -0 0 1 1 1 1 2 2 3 3 3 3 3 4 5 7 9 9 8 8 8 6 4 3 3 2 2 2 2 3 3 3 3 4 3 3 2 1 -0 -1 -1
-2 -1 -1 -0 -0 0 1 1 1 2 2 2 3 3 3 3 5 6 8 8 8 8 8 7 5 3 2 2 2 1 1 2 2 2 2 2 2 2 1 -0 -1 -1 -1
-2 -1 -1 -1 -0 0 1 1 2 2 2 2 2 2 2 3 5 6 6 7 7 7 8 7 6 4 3 2 1 1 1 1 1 1 1 0 0 0 -0 -1 -2 -2 -2
-1 -1 -1 -0 0 1 1 1 2 2 2 2 2 2 2 3 5 5 6 6 7 7 8 7 7 6 5 4 2 1 1 0 0 -0 -0 -1 -1 -1 -1 -2 -2 -2 -2
-1 -1 -0 0 1 1 1 1 2 2 2 2 2 2 2 3 4 5 5 6 6 7 8 8 8 7 6 5 4 3 2 1 1 0 -0 -1 -1 -1 -2 -2 -3 -2 -2
0 0 1 1 1 1 1 1 2 2 2 2 2 2 2 3 3 4 4 5 6 7 8 8 9 9 8 7 6 6 5 4 3 2 2 1 1 0 -0 -1 -1 -1 -1
1 1 1 1 1 1 1 1 2 2 2 2 3 3 3 3 3 3 4 4 5 6 7 8 9 9 9 9 9 8 7 7 6 5 4 3 3 2 2 1 1 1 1
1 1 1 1 1 1 1 1 2 2 2 2 3 3 3 4 3 3 4 4 4 5 6 6 7 8 8 9 9 9 9 8 8 7 6 5 4 4 4 3 3 3 3
1 1 1 1 2 2 2 2 2 2 2 2 3 3 3 4 4 4 4 4 4 4 4 5 6 6 7 8 8 9 9 9 9 8 7 7 6 6 6 5 5 4 4
2 2 2 2 2 2 2 2 2 2 2 2 3 3 3 4 4 4 4 4 4 4 4 4 4 5 6 6 7 8 8 9 9 9 9 8 8 7 7 7 6 5 5
2 2 2 2 2 2 2 2 2 2 2 2 3 3 3 3 4 4 4 4 4 4 4 4 3 4 4 6 7 7 8 8 9 9 9 9 9 8 8 7 7 6 5